Location: S�tio Afonso Gruber
(26.1760°S, 49.5250°W)
Time: 00:30:48
(UTC+00:00)

Intelsat 5-3 Rocket - Pass Details

Date: 10 October 2020
Orbit: 281 x 6111 km, 23.6° (Epoch: 22 October)

Event Time Altitude Azimuth Distance (km) Brightness Sun altitude
Rises 00:07:54 0° 290° (WNW) 2,934 6.5 -35.9°
Reaches altitude 10° 00:09:32 10° 293° (WNW) 2,319 5.8 -36.2°
Enters shadow 00:10:55 22° 298° (WNW) 1,865 5.2 -36.5°
